Hlavní strana
METAR-TAF:

METAR-TAF

Letiště :

Columbus County Municipal Airport

Whiteville, Severní Karolína, Spojené státy americké

zeměpisná šířka: 34-16-22N, zeměpisná délka: 078-42-54W, výška: 30 m

Aktuální stav počasí

Zpráva byla vytvořena před 27 minutami, v 15:55 UTC
Severoseverozápadní vítr 5 kt
Teplota 30°C
Vlhkost vzduchu 55%
Tlak 1014 hPa
Viditelnost: 16.1 km
Polojasno ve výšce 4400 ft
Polojasno ve výšce 5000 ft

METAR: KCPC 031555Z AUTO 33005KT 10SM SCT044 SCT050 30/20 A2995 RMK AO2 T03010203

Čas: 12:22 (16:22 UTC)


TAF: chybějící

Stav a předpovědi počasí z více než 4 000 letišť (zprávy METAR a TAF).

Červené a žluté tečky na mapě představují dostupné meteorologické stanice.

Když kurzor umístíte na tečku, zobrazí se název stanice.

Pak kliknutím zobrazíte stav a předpověď počasí.

Chcete-li změnit mapu, kliknutím na zelené tlačítko se znaménkem +mapu přiblížíte, kliknutím na zelené tlačítko se znaménkem – mapu oddálíte a kliknutím na zelené šipky přejdete na sousední mapy.


METAR-TAF: